Location: Monfort
(47.1967°N, 0.2115°W)
Time: 03:24:43
(UTC+00:00)

Cosmos 1076 Rocket - Pass Details

Date: 24 October 2020
Orbit: 589 x 612 km, 82.5° (Epoch: 01 December)

Event Time Altitude Azimuth Distance (km) Brightness Sun altitude
Rises 19:05:42 0° 352° (N) 2,836 7.1 -22.5°
Reaches altitude 10° 19:07:56 10° 355° (N) 1,929 6.2 -22.9°
Enters shadow 19:10:58 44° 11° (N) 819 4.1 -23.4°
